FFT3092 KCLE-KLGA

Flight info

Callsign FFT3092
Flight time 1h 11m
Altitude 37000
Route PFLYD1 MAAJR ETG MIP4
Aircraft A320/M-SDE3FGHIRWY/LB1

Departure

Time 2026-05-05 00:42
Airport Cleveland Hopkins International Airport (KCLE)

Arrival

Time 2026-05-05 01:53
Airport LaGuardia Airport (KLGA)
Time Latitude Longitude Altitude Speed Heading
2026-05-05 00:16 41.41337 -81.83762 796 ft 0 kts 301°
2026-05-05 00:32 41.41336 -81.83760 795 ft 2 kts 301°
2026-05-05 00:32 41.41323 -81.83731 795 ft 4 kts 301°
2026-05-05 00:33 41.41306 -81.83705 795 ft 4 kts 338°
2026-05-05 00:33 41.41287 -81.83705 795 ft 2 kts 42°
2026-05-05 00:33 41.41287 -81.83706 795 ft 0 kts 42°
2026-05-05 00:37 41.41292 -81.83699 795 ft 3 kts 42°
2026-05-05 00:37 41.41315 -81.83674 795 ft 5 kts 35°
2026-05-05 00:37 41.41354 -81.83648 795 ft 7 kts 21°
2026-05-05 00:37 41.41404 -81.83642 795 ft 7 kts 352°
2026-05-05 00:38 41.41444 -81.83656 795 ft 5 kts 335°
2026-05-05 00:38 41.41470 -81.83679 795 ft 4 kts 325°
2026-05-05 00:38 41.41486 -81.83698 795 ft 3 kts 313°
2026-05-05 00:38 41.41516 -81.83768 796 ft 14 kts 289°
2026-05-05 00:39 41.41504 -81.83909 796 ft 16 kts 238°
2026-05-05 00:39 41.41424 -81.84010 795 ft 15 kts 205°
2026-05-05 00:39 41.41351 -81.84112 795 ft 16 kts 242°
2026-05-05 00:39 41.41405 -81.84160 795 ft 10 kts 358°
2026-05-05 00:40 41.41435 -81.84151 795 ft 0 kts 17°
2026-05-05 00:40 41.41441 -81.84150 795 ft 4 kts
2026-05-05 00:40 41.41495 -81.84190 794 ft 12 kts 309°
2026-05-05 00:41 41.41512 -81.84232 794 ft 4 kts 268°
2026-05-05 00:41 41.41488 -81.84277 794 ft 15 kts 228°
2026-05-05 00:41 41.41315 -81.84549 794 ft 72 kts 230°
2026-05-05 00:41 41.40855 -81.85273 794 ft 131 kts 230°
2026-05-05 00:42 41.40178 -81.86361 948 ft 162 kts 231°
2026-05-05 00:42 41.39497 -81.87517 1644 ft 158 kts 229°
2026-05-05 00:42 41.38870 -81.88740 2201 ft 169 kts 250°
2026-05-05 00:42 41.38887 -81.90411 2520 ft 196 kts 280°
2026-05-05 00:43 41.39186 -81.92293 2783 ft 219 kts 275°
2026-05-05 00:43 41.39444 -81.94374 3128 ft 242 kts 275°
2026-05-05 00:43 41.39714 -81.96626 3907 ft 249 kts 275°
2026-05-05 00:43 41.39993 -81.98908 4842 ft 250 kts 275°
2026-05-05 00:44 41.40279 -82.01208 5656 ft 255 kts 275°
2026-05-05 00:44 41.40569 -82.03525 5929 ft 251 kts 275°
2026-05-05 00:44 41.40857 -82.05794 6004 ft 247 kts 275°
2026-05-05 00:44 41.41143 -82.08047 6012 ft 246 kts 275°
2026-05-05 00:45 41.41520 -82.10284 6158 ft 256 kts 289°
2026-05-05 00:45 41.42755 -82.12078 6980 ft 277 kts 323°
2026-05-05 00:45 41.44677 -82.12727 7826 ft 300 kts 356°
2026-05-05 00:45 41.46728 -82.11930 8631 ft 318 kts 28°
2026-05-05 00:46 41.48451 -82.10035 9433 ft 326 kts 43°
2026-05-05 00:46 41.49977 -82.07785 10199 ft 330 kts 46°
2026-05-05 00:46 41.51546 -82.05431 10532 ft 350 kts 45°
2026-05-05 00:46 41.53220 -82.02939 10852 ft 368 kts 44°
2026-05-05 00:47 41.55070 -82.00546 11464 ft 372 kts 37°
2026-05-05 00:47 41.57073 -81.98345 12185 ft 374 kts 33°
2026-05-05 00:47 41.59128 -81.96188 12892 ft 379 kts 38°
2026-05-05 00:47 41.60920 -81.93570 13565 ft 387 kts 52°
2026-05-05 00:48 41.62193 -81.90386 13903 ft 392 kts 69°
2026-05-05 00:48 41.62771 -81.86831 14103 ft 394 kts 87°
2026-05-05 00:48 41.62896 -81.83165 14790 ft 395 kts 88°
2026-05-05 00:48 41.63060 -81.79489 15424 ft 398 kts 86°
2026-05-05 00:49 41.63263 -81.75787 16048 ft 401 kts 86°
2026-05-05 00:49 41.63489 -81.72061 16659 ft 403 kts 85°
2026-05-05 00:49 41.63723 -81.68321 17255 ft 406 kts 85°
2026-05-05 00:49 41.63955 -81.64550 17831 ft 408 kts 85°
2026-05-05 00:50 41.64178 -81.60754 18401 ft 411 kts 86°
2026-05-05 00:50 41.64390 -81.56935 18957 ft 414 kts 86°
2026-05-05 00:50 41.64680 -81.53107 19500 ft 417 kts 80°
2026-05-05 00:50 41.65377 -81.49387 20035 ft 420 kts 72°
2026-05-05 00:51 41.66258 -81.45605 20580 ft 422 kts 72°
2026-05-05 00:51 41.67130 -81.41854 21091 ft 425 kts 72°
2026-05-05 00:51 41.68011 -81.38057 21593 ft 428 kts 72°
2026-05-05 00:51 41.68886 -81.34243 22090 ft 431 kts 72°
2026-05-05 00:52 41.69763 -81.30399 22572 ft 433 kts 72°
2026-05-05 00:52 41.70649 -81.26537 23027 ft 436 kts 72°
2026-05-05 00:52 41.71527 -81.22693 23460 ft 439 kts 72°
2026-05-05 00:52 41.72414 -81.18768 23898 ft 441 kts 72°
2026-05-05 00:53 41.73306 -81.14827 24310 ft 444 kts 72°
2026-05-05 00:53 41.74204 -81.10865 24721 ft 446 kts 72°
2026-05-05 00:53 41.75109 -81.06880 25117 ft 448 kts 72°
2026-05-05 00:53 41.75858 -81.02835 25493 ft 451 kts 81°
2026-05-05 00:54 41.76101 -80.98655 25842 ft 453 kts 91°
2026-05-05 00:54 41.75824 -80.94442 26189 ft 455 kts 101°
2026-05-05 00:54 41.75063 -80.90335 26534 ft 456 kts 108°
2026-05-05 00:54 41.74178 -80.86250 26884 ft 458 kts 107°
2026-05-05 00:55 41.73288 -80.82149 27210 ft 460 kts 107°
2026-05-05 00:55 41.72395 -80.78035 27535 ft 462 kts 107°
2026-05-05 00:55 41.71497 -80.73899 27852 ft 465 kts 108°
2026-05-05 00:55 41.70598 -80.69730 28145 ft 467 kts 107°
2026-05-05 00:56 41.69696 -80.65545 28446 ft 469 kts 107°
2026-05-05 00:56 41.68787 -80.61341 28744 ft 471 kts 107°
2026-05-05 00:56 41.67891 -80.57110 29007 ft 473 kts 106°
2026-05-05 00:56 41.67072 -80.52838 29278 ft 475 kts 105°
2026-05-05 00:57 41.66308 -80.48529 29551 ft 477 kts 104°
2026-05-05 00:57 41.65569 -80.44191 29797 ft 479 kts 104°
2026-05-05 00:57 41.64833 -80.39836 30051 ft 481 kts 104°
2026-05-05 00:57 41.64092 -80.35520 30298 ft 482 kts 104°
2026-05-05 00:58 41.63320 -80.31140 30522 ft 484 kts 104°
2026-05-05 00:58 41.62521 -80.26760 30741 ft 486 kts 104°
2026-05-05 00:58 41.61706 -80.22387 30978 ft 487 kts 105°
2026-05-05 00:58 41.60886 -80.18004 31301 ft 486 kts 104°
2026-05-05 00:59 41.60076 -80.13629 31620 ft 486 kts 104°
2026-05-05 00:59 41.59271 -80.09258 31925 ft 485 kts 104°
2026-05-05 00:59 41.58468 -80.04887 32223 ft 484 kts 104°
2026-05-05 00:59 41.57668 -80.00518 32518 ft 483 kts 104°
2026-05-05 01:00 41.56860 -79.96161 32808 ft 483 kts 104°
2026-05-05 01:00 41.56047 -79.91810 33104 ft 482 kts 104°
2026-05-05 01:00 41.55236 -79.87478 33393 ft 481 kts 103°
2026-05-05 01:00 41.54432 -79.83197 33683 ft 481 kts 103°
2026-05-05 01:01 41.53618 -79.78870 33973 ft 480 kts 103°
2026-05-05 01:01 41.52809 -79.74555 34257 ft 479 kts 103°
2026-05-05 01:01 41.52005 -79.70244 34513 ft 479 kts 103°
2026-05-05 01:01 41.51200 -79.65933 34750 ft 478 kts 103°
2026-05-05 01:02 41.50391 -79.61623 34983 ft 478 kts 103°
2026-05-05 01:02 41.49579 -79.57322 35208 ft 478 kts 104°
2026-05-05 01:02 41.48767 -79.53033 35435 ft 476 kts 104°
2026-05-05 01:02 41.47952 -79.48754 35633 ft 476 kts 104°
2026-05-05 01:03 41.47134 -79.44468 35808 ft 477 kts 104°
2026-05-05 01:03 41.46312 -79.40187 35996 ft 477 kts 104°
2026-05-05 01:03 41.45487 -79.35908 36176 ft 476 kts 104°
2026-05-05 01:03 41.44666 -79.31627 36352 ft 477 kts 104°
2026-05-05 01:04 41.43845 -79.27346 36516 ft 477 kts 104°
2026-05-05 01:04 41.42202 -79.18818 36795 ft 474 kts 104°
2026-05-05 01:04 41.41388 -79.14574 36828 ft 472 kts 104°
2026-05-05 01:05 41.39765 -79.06168 36820 ft 467 kts 104°
2026-05-05 01:05 41.38129 -78.97809 36824 ft 466 kts 104°
2026-05-05 01:06 41.37319 -78.93655 36600 ft 459 kts 104°
2026-05-05 01:06 41.36523 -78.89565 36210 ft 454 kts 104°
2026-05-05 01:06 41.35732 -78.85508 35652 ft 453 kts 104°
2026-05-05 01:06 41.34936 -78.81441 34984 ft 455 kts 104°
2026-05-05 01:07 41.34132 -78.77358 34273 ft 458 kts 103°
2026-05-05 01:07 41.33333 -78.73314 33747 ft 457 kts 103°
2026-05-05 01:07 41.32516 -78.69202 33511 ft 460 kts 103°
2026-05-05 01:07 41.31698 -78.65080 33264 ft 462 kts 103°
2026-05-05 01:08 41.30879 -78.60947 33012 ft 463 kts 103°
2026-05-05 01:08 41.30056 -78.56805 32800 ft 463 kts 103°
2026-05-05 01:08 41.28394 -78.48534 32830 ft 464 kts 104°
2026-05-05 01:09 41.26736 -78.40247 32829 ft 463 kts 103°
2026-05-05 01:09 41.25077 -78.31970 32845 ft 463 kts 103°
2026-05-05 01:10 41.23404 -78.23699 32849 ft 464 kts 104°
2026-05-05 01:10 41.21731 -78.15430 32850 ft 463 kts 102°
2026-05-05 01:11 41.20604 -78.07035 32837 ft 461 kts 97°
2026-05-05 01:11 41.19572 -77.98703 32833 ft 461 kts 97°
2026-05-05 01:12 41.18523 -77.90310 32830 ft 461 kts 97°
2026-05-05 01:12 41.17468 -77.81927 32831 ft 461 kts 97°
2026-05-05 01:13 41.16410 -77.73548 32832 ft 460 kts 97°
2026-05-05 01:13 41.15349 -77.65165 32830 ft 460 kts 97°
2026-05-05 01:14 41.14280 -77.56796 32832 ft 460 kts 97°
2026-05-05 01:14 41.13212 -77.48430 32832 ft 460 kts 97°
2026-05-05 01:15 41.12134 -77.40078 32831 ft 460 kts 98°
2026-05-05 01:15 41.11045 -77.31726 32792 ft 458 kts 98°
2026-05-05 01:16 41.10502 -77.27596 32529 ft 450 kts 98°
2026-05-05 01:16 41.09967 -77.23540 32280 ft 445 kts 98°
2026-05-05 01:16 41.09435 -77.19510 31779 ft 445 kts 98°
2026-05-05 01:16 41.08897 -77.15420 30840 ft 454 kts 98°
2026-05-05 01:17 41.08355 -77.11310 30079 ft 451 kts 98°
2026-05-05 01:17 41.07816 -77.07240 29171 ft 446 kts 99°
2026-05-05 01:17 41.07282 -77.03221 28295 ft 440 kts 99°
2026-05-05 01:17 41.06754 -76.99275 27732 ft 427 kts 99°
2026-05-05 01:18 41.06240 -76.95432 27272 ft 422 kts 99°
2026-05-05 01:18 41.05728 -76.91608 26804 ft 420 kts 99°
2026-05-05 01:18 41.05215 -76.87800 26313 ft 419 kts 99°
2026-05-05 01:18 41.04703 -76.84006 25836 ft 416 kts 99°
2026-05-05 01:19 41.04194 -76.80237 25329 ft 415 kts 99°
2026-05-05 01:19 41.03686 -76.76479 24827 ft 414 kts 99°
2026-05-05 01:19 41.03177 -76.72727 24305 ft 413 kts 99°
2026-05-05 01:19 41.02670 -76.68989 23791 ft 412 kts 99°
2026-05-05 01:20 41.02306 -76.66531 23471 ft 411 kts 104°
2026-05-05 01:20 41.01485 -76.62924 22997 ft 410 kts 107°
2026-05-05 01:20 41.00627 -76.59337 22519 ft 408 kts 108°
2026-05-05 01:20 40.99768 -76.55766 22049 ft 406 kts 108°
2026-05-05 01:21 40.98913 -76.52218 21589 ft 405 kts 108°
2026-05-05 01:21 40.98056 -76.48676 21133 ft 402 kts 108°
2026-05-05 01:21 40.96932 -76.44027 20539 ft 399 kts 108°
2026-05-05 01:21 40.96091 -76.40536 20085 ft 397 kts 108°
2026-05-05 01:22 40.95527 -76.38188 19791 ft 396 kts 108°
2026-05-05 01:22 40.94695 -76.34726 19346 ft 394 kts 108°
2026-05-05 01:22 40.93863 -76.31284 18904 ft 392 kts 109°
2026-05-05 01:22 40.93032 -76.27864 18505 ft 389 kts 109°
2026-05-05 01:23 40.92205 -76.24474 18145 ft 385 kts 109°
2026-05-05 01:23 40.91386 -76.21114 17761 ft 382 kts 109°
2026-05-05 01:23 40.90578 -76.17796 17440 ft 377 kts 109°
2026-05-05 01:23 40.89780 -76.14518 17104 ft 373 kts 109°
2026-05-05 01:24 40.88988 -76.11267 16769 ft 370 kts 109°
2026-05-05 01:24 40.88201 -76.08048 16436 ft 366 kts 109°
2026-05-05 01:24 40.87420 -76.04860 16111 ft 362 kts 109°
2026-05-05 01:24 40.86646 -76.01707 15782 ft 359 kts 109°
2026-05-05 01:25 40.85878 -75.98586 15469 ft 355 kts 109°
2026-05-05 01:25 40.85115 -75.95494 15151 ft 352 kts 109°
2026-05-05 01:25 40.84354 -75.92423 14832 ft 350 kts 109°
2026-05-05 01:25 40.83601 -75.89389 14522 ft 347 kts 109°
2026-05-05 01:26 40.82856 -75.86388 14205 ft 344 kts 109°
2026-05-05 01:26 40.82125 -75.83437 13901 ft 342 kts 109°
2026-05-05 01:26 40.81388 -75.80469 13595 ft 339 kts 109°
2026-05-05 01:26 40.80659 -75.77520 13285 ft 337 kts 109°
2026-05-05 01:27 40.79935 -75.74593 12988 ft 335 kts 109°
2026-05-05 01:27 40.79212 -75.71681 12860 ft 333 kts 109°
2026-05-05 01:27 40.78489 -75.68781 12759 ft 333 kts 109°
2026-05-05 01:27 40.77767 -75.65877 12654 ft 333 kts 109°
2026-05-05 01:28 40.77047 -75.62979 12543 ft 332 kts 109°
2026-05-05 01:28 40.76343 -75.60152 12431 ft 331 kts 109°
2026-05-05 01:28 40.75626 -75.57272 12320 ft 331 kts 109°
2026-05-05 01:28 40.74909 -75.54397 12203 ft 329 kts 109°
2026-05-05 01:29 40.74192 -75.51535 12082 ft 328 kts 109°
2026-05-05 01:29 40.73473 -75.48681 11974 ft 328 kts 109°
2026-05-05 01:29 40.72756 -75.45833 11865 ft 328 kts 109°
2026-05-05 01:29 40.72092 -75.42969 11755 ft 326 kts 106°
2026-05-05 01:30 40.71506 -75.40089 11648 ft 326 kts 104°
2026-05-05 01:30 40.70954 -75.37198 11534 ft 326 kts 104°
2026-05-05 01:30 40.70408 -75.34306 11421 ft 325 kts 104°
2026-05-05 01:30 40.69853 -75.31414 11313 ft 325 kts 105°
2026-05-05 01:31 40.69292 -75.28534 11197 ft 324 kts 105°
2026-05-05 01:31 40.68725 -75.25666 11090 ft 323 kts 105°
2026-05-05 01:31 40.68153 -75.22805 10982 ft 323 kts 105°
2026-05-05 01:31 40.67579 -75.19950 10883 ft 321 kts 105°
2026-05-05 01:32 40.66985 -75.17115 10770 ft 320 kts 110°
2026-05-05 01:32 40.66045 -75.14476 10663 ft 317 kts 124°
2026-05-05 01:32 40.64700 -75.12205 10557 ft 314 kts 136°
2026-05-05 01:32 40.63216 -75.10104 10460 ft 314 kts 136°
2026-05-05 01:33 40.61732 -75.08003 10346 ft 313 kts 136°
2026-05-05 01:33 40.60254 -75.05905 10248 ft 312 kts 136°
2026-05-05 01:33 40.58782 -75.03807 10123 ft 311 kts 136°
2026-05-05 01:33 40.57373 -75.01655 9991 ft 311 kts 128°
2026-05-05 01:34 40.56321 -74.99168 10003 ft 313 kts 114°
2026-05-05 01:34 40.55529 -74.96497 10006 ft 313 kts 113°
2026-05-05 01:34 40.54741 -74.93833 10012 ft 312 kts 113°
2026-05-05 01:34 40.53950 -74.91170 10007 ft 313 kts 113°
2026-05-05 01:35 40.53159 -74.88508 10009 ft 313 kts 113°
2026-05-05 01:35 40.52368 -74.85849 10005 ft 312 kts 113°
2026-05-05 01:35 40.51573 -74.83194 10010 ft 313 kts 113°
2026-05-05 01:35 40.50771 -74.80538 9997 ft 312 kts 113°
2026-05-05 01:36 40.49966 -74.77886 9998 ft 312 kts 113°
2026-05-05 01:36 40.49164 -74.75233 9999 ft 312 kts 113°
2026-05-05 01:36 40.48364 -74.72582 9996 ft 312 kts 113°
2026-05-05 01:36 40.47566 -74.69927 9993 ft 313 kts 114°
2026-05-05 01:37 40.46766 -74.67269 9995 ft 313 kts 113°
2026-05-05 01:37 40.45967 -74.64613 9996 ft 313 kts 113°
2026-05-05 01:37 40.45181 -74.61992 9998 ft 313 kts 113°
2026-05-05 01:37 40.44383 -74.59336 9994 ft 312 kts 113°
2026-05-05 01:38 40.43628 -74.56672 9995 ft 312 kts 106°
2026-05-05 01:38 40.43330 -74.53855 10005 ft 313 kts 89°
2026-05-05 01:38 40.43629 -74.51035 10014 ft 312 kts 72°
2026-05-05 01:38 40.44342 -74.48347 10003 ft 312 kts 69°
2026-05-05 01:39 40.45070 -74.45665 10004 ft 313 kts 69°
2026-05-05 01:39 40.45793 -74.42976 10009 ft 312 kts 69°
2026-05-05 01:39 40.46513 -74.40286 9885 ft 313 kts 69°
2026-05-05 01:39 40.47236 -74.37591 9437 ft 314 kts 70°
2026-05-05 01:40 40.47960 -74.34890 9047 ft 312 kts 70°
2026-05-05 01:40 40.48676 -74.32209 8664 ft 310 kts 70°
2026-05-05 01:40 40.49387 -74.29551 8276 ft 308 kts 70°
2026-05-05 01:40 40.50095 -74.26914 7860 ft 307 kts 70°
2026-05-05 01:41 40.50804 -74.24276 7458 ft 306 kts 70°
2026-05-05 01:41 40.51503 -74.21670 7280 ft 301 kts 70°
2026-05-05 01:41 40.52196 -74.19083 7159 ft 300 kts 70°
2026-05-05 01:41 40.53029 -74.16576 7020 ft 299 kts 54°
2026-05-05 01:42 40.54474 -74.14688 6660 ft 292 kts 32°
2026-05-05 01:42 40.56186 -74.13270 6208 ft 291 kts 28°
2026-05-05 01:42 40.57928 -74.11915 5779 ft 291 kts 27°
2026-05-05 01:42 40.59671 -74.10574 5378 ft 291 kts 27°
2026-05-05 01:43 40.61413 -74.09240 5010 ft 288 kts 27°
2026-05-05 01:43 40.63157 -74.07915 4755 ft 291 kts 27°
2026-05-05 01:43 40.64904 -74.06592 4496 ft 289 kts 27°
2026-05-05 01:43 40.66605 -74.05307 4250 ft 289 kts 28°
2026-05-05 01:44 40.68343 -74.04003 4057 ft 288 kts 27°
2026-05-05 01:44 40.70060 -74.02718 4008 ft 289 kts 27°
2026-05-05 01:44 40.71790 -74.01433 4020 ft 289 kts 27°
2026-05-05 01:44 40.73499 -74.00165 4025 ft 289 kts 27°
2026-05-05 01:45 40.75230 -73.98881 4026 ft 289 kts 27°
2026-05-05 01:45 40.76980 -73.97568 4033 ft 290 kts 27°
2026-05-05 01:45 40.78730 -73.96241 4036 ft 290 kts 27°
2026-05-05 01:45 40.80479 -73.94916 4035 ft 290 kts 27°
2026-05-05 01:46 40.82233 -73.93592 3798 ft 290 kts 27°
2026-05-05 01:46 40.83983 -73.92278 3548 ft 289 kts 27°
2026-05-05 01:46 40.85733 -73.90971 3299 ft 288 kts 28°
2026-05-05 01:46 40.87484 -73.89670 3089 ft 288 kts 27°
2026-05-05 01:47 40.89204 -73.88394 3003 ft 276 kts 27°
2026-05-05 01:47 40.90802 -73.87201 3008 ft 258 kts 27°
2026-05-05 01:47 40.92339 -73.86056 3005 ft 251 kts 27°
2026-05-05 01:47 40.93860 -73.84917 3008 ft 252 kts 27°
2026-05-05 01:48 40.95370 -73.83733 2884 ft 254 kts 35°
2026-05-05 01:48 40.96482 -73.81992 2634 ft 247 kts 69°
2026-05-05 01:48 40.96752 -73.79884 2395 ft 233 kts 102°
2026-05-05 01:48 40.96156 -73.77990 2138 ft 219 kts 135°
2026-05-05 01:49 40.94986 -73.76780 2014 ft 212 kts 156°
2026-05-05 01:49 40.93633 -73.76192 1998 ft 197 kts 174°
2026-05-05 01:49 40.92303 -73.76198 2039 ft 188 kts 191°
2026-05-05 01:49 40.91074 -73.76713 2008 ft 185 kts 207°
2026-05-05 01:50 40.89981 -73.77586 2004 ft 182 kts 212°
2026-05-05 01:50 40.88965 -73.78431 1990 ft 160 kts 212°
2026-05-05 01:50 40.88061 -73.79178 2000 ft 149 kts 211°
2026-05-05 01:50 40.87192 -73.79893 1973 ft 145 kts 212°
2026-05-05 01:51 40.86340 -73.80603 1788 ft 144 kts 212°
2026-05-05 01:51 40.85496 -73.81305 1615 ft 143 kts 211°
2026-05-05 01:51 40.84652 -73.82002 1457 ft 143 kts 211°
2026-05-05 01:51 40.83805 -73.82712 1289 ft 146 kts 211°
2026-05-05 01:52 40.82930 -73.83443 1087 ft 152 kts 211°
2026-05-05 01:52 40.82035 -73.84185 879 ft 150 kts 211°
2026-05-05 01:52 40.81181 -73.84899 660 ft 142 kts 211°
2026-05-05 01:52 40.80357 -73.85574 439 ft 137 kts 210°
2026-05-05 01:53 40.79546 -73.86236 272 ft 139 kts 211°
2026-05-05 01:53 40.78732 -73.86910 127 ft 138 kts 212°
2026-05-05 01:53 40.77983 -73.87531 16 ft 106 kts 210°
2026-05-05 01:53 40.77617 -73.87837 24 ft 27 kts 212°
2026-05-05 01:54 40.77459 -73.87964 26 ft 21 kts 206°
2026-05-05 01:54 40.77333 -73.87994 20 ft 11 kts 182°
2026-05-05 01:54 40.77285 -73.87987 22 ft 5 kts 138°
2026-05-05 01:54 40.77291 -73.87954 22 ft 6 kts 54°
2026-05-05 01:55 40.77350 -73.87910 22 ft 14 kts 36°
2026-05-05 01:55 40.77446 -73.87825 23 ft 17 kts 32°
2026-05-05 01:55 40.77541 -73.87747 21 ft 15 kts 32°
2026-05-05 01:55 40.77608 -73.87667 21 ft 11 kts 79°
2026-05-05 01:56 40.77639 -73.87583 20 ft 10 kts 32°
2026-05-05 01:56 40.77695 -73.87535 20 ft 9 kts 33°
2026-05-05 01:56 40.77744 -73.87469 17 ft 11 kts 62°
2026-05-05 01:56 40.77771 -73.87370 15 ft 11 kts 78°
2026-05-05 01:57 40.77767 -73.87272 16 ft 10 kts 104°
2026-05-05 01:57 40.77737 -73.87192 15 ft 11 kts 121°
2026-05-05 01:57 40.77687 -73.87087 17 ft 16 kts 122°
2026-05-05 01:57 40.77623 -73.86959 14 ft 13 kts 132°
2026-05-05 01:58 40.77559 -73.86976 19 ft 7 kts 212°
2026-05-05 01:58 40.77517 -73.87011 21 ft 9 kts 212°
2026-05-05 01:58 40.77463 -73.87045 19 ft 6 kts 175°
2026-05-05 01:58 40.77437 -73.87016 19 ft 4 kts 131°
2026-05-05 01:59 40.77426 -73.86999 21 ft 1 kts 132°
2026-05-05 01:59 40.77424 -73.86997 19 ft 0 kts 132°